GW3869 Weather Reports


time (UTC)temp
F
wind
direction
speed
knots
gust
knots
rain 1hr
in
rain 24hr
in
rain mn
in
humidity
%
barometer
mb
20260505102218 58 158 3.5 4.3 0.02 0.03 0.03 91 1008.1
20260505101717 58 147 2.6 4.3 0.02 0.03 0.03 90 1008.1
20260505101212 58 133 2.6 4.3 0.02 0.03 0.03 89 1008.3
20260505100709 58 145 5.2 5.2 0.05 0.03 0.03 88 1008.4
20260505100206 59 106 1.7 4.3 0.09 0.02 0.02 85 1008.2
20260505095701 60 149 3.5 4.3 0.09 0.02 0.02 82 1008.2
20260505095200 61 163 2.6 3.5 0.02 0.00 0.00 78 1008.3
20260505094655 63 199 4.3 7.8 0.00 0.00 0.00 70 1008.3
20260505094151 63 183 4.3 6.1 0.00 0.00 0.00 63 1008.1
20260505093648 64 130 3.5 4.3 0.00 0.00 0.00 62 1007.8
20260505093145 64 180 3.5 5.2 0.00 0.00 0.00 61 1007.6
20260505092642 64 180 3.5 4.3 0.00 0.00 0.00 61 1007.4
20260505092141 64 179 3.5 4.3 0.00 0.00 0.00 60 1007.3
20260505091638 64 177 4.3 7.0 0.00 0.00 0.00 60 1007.1
20260505091135 64 175 5.2 6.1 0.00 0.00 0.00 60 1006.6
20260505090633 64 179 5.2 5.2 0.00 0.00 0.00 60 1006.7
20260505090131 64 177 4.3 5.2 0.00 0.00 0.00 60 1006.8
20260505085628 64 170 4.3 8.7 0.00 0.00 0.00 59 1006.6
20260505085126 64 166 4.3 5.2 0.00 0.00 0.00 59 1006.6
20260505084624 64 176 5.2 6.1 0.00 0.00 0.00 59 1006.2
20260505084122 64 172 4.3 5.2 0.00 0.00 0.00 59 1006.3
20260505083619 64 165 3.5 6.1 0.00 0.00 0.00 58 1006.2
20260505083115 64 177 5.2 7.0 0.00 0.00 0.00 59 1006.1
20260505082611 64 177 5.2 6.1 0.00 0.00 0.00 59 1006.0
20260505082109 64 181 6.1 7.8 0.00 0.00 0.00 59 1005.8
20260505081604 64 165 5.2 7.8 0.00 0.00 0.00 58 1005.6
20260505081102 65 176 4.3 7.8 0.00 0.00 0.00 58 1005.5
20260505080558 64 176 5.2 7.0 0.00 0.00 0.00 58 1005.5
20260505080055 65 177 5.2 7.0 0.00 0.00 0.00 58 1005.4
20260505075550 65 181 7.0 7.8 0.00 0.00 0.00 58 1005.6
20260505075048 65 187 6.1 7.8 0.00 0.00 0.00 57 1005.6
20260505074544 65 177 5.2 7.8 0.00 0.00 0.00 57 1005.6
20260505074041 65 186 5.2 7.0 0.00 0.00 0.00 57 1005.7
20260505073538 65 173 5.2 6.1 0.00 0.00 0.00 57 1005.4
20260505073037 65 177 5.2 7.0 0.00 0.00 0.00 57 1005.5
20260505072527 65 193 6.1 7.8 0.00 0.00 0.00 57 1005.5
20260505072023 65 184 6.1 7.8 0.00 0.00 0.00 57 1005.4
20260505071519 65 181 6.1 7.0 0.00 0.00 0.00 57 1005.2
20260505071018 65 177 5.2 7.8 0.00 0.00 0.00 57 1005.1
20260505070515 65 178 5.2 6.1 0.00 0.00 0.00 57 1005.2
20260505070010 65 175 5.2 6.1 0.00 0.00 0.00 56 1005.6
20260505065507 65 184 5.2 7.0 0.00 0.00 0.00 56 1005.8
20260505065003 66 180 6.1 7.8 0.00 0.00 0.00 56 1005.8
20260505064500 66 181 6.1 7.8 0.00 0.00 0.00 55 1005.5
20260505063959 66 180 6.1 7.0 0.00 0.00 0.00 56 1005.6
20260505063455 66 180 5.2 8.7 0.00 0.00 0.00 56 1005.5
20260505062951 66 172 7.0 7.8 0.00 0.00 0.00 55 1005.8
20260505062448 66 163 6.1 7.8 0.00 0.00 0.00 55 1005.6
20260505061945 66 182 5.2 11.3 0.00 0.00 0.00 55 1005.6
20260505061443 66 182 6.1 7.8 0.00 0.00 0.00 55 1005.6
20260505060940 66 189 7.0 7.8 0.00 0.00 0.00 55 1005.4
20260505060437 66 186 6.1 7.8 0.00 0.00 0.00 55 1005.4
20260505055934 66 183 7.0 7.0 0.00 0.00 0.00 54 1005.2
20260505055430 66 180 5.2 7.0 0.00 0.00 0.00 54 1005.2
20260505054927 66 180 6.1 7.0 0.00 0.00 0.00 54 1005.4
20260505054424 66 175 6.1 7.0 0.00 0.00 0.00 54 1005.4
20260505053922 66 180 5.2 6.1 0.00 0.00 0.00 54 1004.8
20260505053419 66 174 5.2 7.0 0.00 0.00 0.00 54 1005.1
20260505052916 66 174 6.1 7.0 0.00 0.00 0.00 54 1005.0
20260505052413 66 179 5.2 6.1 0.00 0.00 0.00 55 1004.9
20260505051910 66 177 5.2 6.1 0.00 0.00 0.00 55 1004.9
20260505051407 66 179 5.2 7.0 0.00 0.00 0.00 55 1005.0
20260505050905 66 181 6.1 7.0 0.00 0.00 0.00 55 1005.2
20260505050403 67 180 6.1 7.8 0.00 0.00 0.00 54 1005.2
20260505041330 67 177 5.2 7.0 0.00 0.00 0.00 55 1005.7
20260505040827 67 184 6.1 7.8 0.00 0.00 0.00 54 1005.6
20260505040325 67 181 4.3 6.1 0.00 0.00 0.00 55 1005.6
20260505035822 68 181 4.3 7.0 0.00 0.00 0.00 54 1005.8
20260505035317 68 180 5.2 7.0 0.00 0.00 0.00 54 1005.8
20260505034815 68 183 6.1 8.7 0.00 0.00 0.00 54 1005.8
20260505034311 68 181 5.2 7.8 0.00 0.00 0.00 54 1005.9
20260505033809 68 180 6.1 7.0 0.00 0.00 0.00 54 1005.8
20260505033305 67 179 4.3 6.1 0.00 0.00 0.00 55 1005.9
20260505032804 68 174 4.3 6.1 0.00 0.00 0.00 54 1005.7
20260505032259 68 176 4.3 7.0 0.00 0.00 0.00 54 1005.6
20260505031756 68 175 4.3 5.2 0.00 0.00 0.00 55 1005.6
20260505031252 68 180 5.2 6.1 0.00 0.00 0.00 54 1005.7
20260505030749 68 182 6.1 7.0 0.00 0.00 0.00 55 1005.6
20260505030246 68 179 4.3 5.2 0.00 0.00 0.00 54 1005.5
20260505025741 68 176 4.3 6.1 0.00 0.00 0.00 54 1005.6
20260505025240 68 180 6.1 6.1 0.00 0.00 0.00 55 1005.5
20260505024738 68 174 4.3 6.1 0.00 0.00 0.00 54 1005.1
20260505024234 68 180 5.2 6.1 0.00 0.00 0.00 54 1005.4
20260505023732 68 181 5.2 6.1 0.00 0.00 0.00 54 1005.0
20260505023229 69 177 4.3 6.1 0.00 0.00 0.00 54 1005.2
20260505022726 68 179 5.2 6.1 0.00 0.00 0.00 54 1005.2
20260505022223 68 173 4.3 6.1 0.00 0.00 0.00 54 1004.6
20260505021720 69 180 5.2 7.8 0.00 0.00 0.00 54 1004.6
20260505021217 69 180 4.3 7.0 0.00 0.00 0.00 53 1004.6
20260505020712 69 182 4.3 6.1 0.00 0.00 0.00 54 1004.8
20260505020208 69 160 5.2 6.1 0.00 0.00 0.00 54 1004.5
20260505015706 69 178 4.3 6.1 0.00 0.00 0.00 53 1004.6
20260505015202 69 180 6.1 7.8 0.00 0.00 0.00 53 1004.3
20260505014659 69 181 6.1 6.1 0.00 0.00 0.00 53 1004.2
20260505014156 69 167 5.2 7.0 0.00 0.00 0.00 53 1004.0
20260505013654 69 175 4.3 7.0 0.00 0.00 0.00 53 1004.2
20260505013150 69 180 5.2 6.1 0.00 0.00 0.00 53 1004.3
20260505012649 70 180 4.3 6.1 0.00 0.00 0.00 52 1004.2
20260505012145 70 179 5.2 7.0 0.00 0.00 0.00 52 1004.1
20260505011641 70 182 6.1 7.0 0.00 0.00 0.00 52 1004.3
20260505011139 70 170 5.2 7.0 0.00 0.00 0.00 51 1004.1
20260505010639 70 172 6.1 6.1 0.00 0.00 0.00 52 1004.5
20260505010136 70 169 5.2 6.1 0.00 0.00 0.00 52 1004.1
20260505005632 71 180 5.2 6.1 0.00 0.00 0.00 52 1004.1
20260505005129 71 180 5.2 5.2 0.00 0.00 0.00 52 1003.9
20260505004626 71 180 5.2 6.1 0.00 0.00 0.00 51 1004.0
20260505004123 71 180 5.2 6.1 0.00 0.00 0.00 51 1003.9
20260505003620 71 178 5.2 6.1 0.00 0.00 0.00 51 1003.9
20260505003118 71 181 6.1 7.0 0.00 0.00 0.00 51 1004.0
20260505002614 71 180 5.2 6.1 0.00 0.00 0.00 51 1004.1
20260505002112 72 182 6.1 6.1 0.00 0.00 0.00 51 1004.1
20260505001609 72 178 4.3 7.0 0.00 0.00 0.00 50 1004.2
20260505001107 72 181 6.1 6.1 0.00 0.00 0.00 50 1004.2
20260505000603 72 182 6.1 6.1 0.00 0.00 0.00 50 1004.3
20260504235557 73 178 5.2 7.0 0.00 0.00 0.00 49 1004.4
20260504235049 73 180 7.0 7.0 0.00 0.00 0.00 48 1004.7
20260504234546 73 175 5.2 7.0 0.00 0.00 0.00 48 1004.8
20260504234043 73 179 5.2 6.1 0.00 0.00 0.00 47 1004.6
20260504233538 74 184 6.1 7.0 0.00 0.00 0.00 46 1004.7
20260504233035 74 179 4.3 7.0 0.00 0.00 0.00 46 1004.7
20260504232532 74 180 4.3 7.0 0.00 0.00 0.00 46 1004.6
20260504232030 74 202 7.8 7.8 0.00 0.00 0.00 45 1004.9
20260504231526 74 174 4.3 6.1 0.00 0.00 0.00 45 1004.9
20260504231022 74 183 5.2 7.0 0.00 0.00 0.00 45 1005.2
20260504230519 74 194 7.0 7.0 0.00 0.00 0.00 44 1004.9
20260504230018 74 184 6.1 7.8 0.00 0.00 0.00 44 1004.9
20260504225515 75 184 5.2 7.8 0.00 0.00 0.00 44 1005.2
20260504225012 75 177 4.3 7.8 0.00 0.00 0.00 43 1005.0
20260504224508 75 187 5.2 9.6 0.00 0.00 0.00 43 1005.2
20260504224005 75 189 5.2 8.7 0.00 0.00 0.00 43 1005.0
20260504223502 75 182 4.3 7.0 0.00 0.00 0.00 43 1005.4
20260504222957 75 180 6.1 8.7 0.00 0.00 0.00 43 1005.5
20260504222455 75 186 7.0 10.4 0.00 0.00 0.00 43 1005.2
20260504221952 75 194 9.6 10.4 0.00 0.00 0.00 42 1005.4
20260504221450 75 191 5.2 7.8 0.00 0.00 0.00 43 1005.4
20260504220946 76 191 5.2 10.4 0.00 0.00 0.00 43 1005.1
20260504220443 76 187 6.1 10.4 0.00 0.00 0.00 41 1005.4
20260504215940 75 188 6.1 11.3 0.00 0.00 0.00 42 1005.6
20260504215436 75 185 7.8 10.4 0.00 0.00 0.00 42 1005.5
20260504214933 76 185 6.1 8.7 0.00 0.00 0.00 41 1005.2
20260504214429 76 184 5.2 10.4 0.00 0.00 0.00 42 1005.1
20260504213926 76 186 6.1 8.7 0.00 0.00 0.00 42 1005.5
20260504213422 77 194 6.1 9.6 0.00 0.00 0.00 41 1005.2
20260504212920 77 191 6.1 9.6 0.00 0.00 0.00 42 1005.4
20260504212415 77 193 7.8 10.4 0.00 0.00 0.00 41 1005.6
20260504211914 77 199 7.0 9.6 0.00 0.00 0.00 41 1005.6
20260504211409 78 180 5.2 10.4 0.00 0.00 0.00 44 1005.7
20260504210907 77 194 6.1 8.7 0.00 0.00 0.00 43 1005.6
20260504210404 76 187 6.1 9.6 0.00 0.00 0.00 43 1005.7
20260504205901 77 202 7.0 8.7 0.00 0.00 0.00 42 1005.5
20260504205359 77 197 8.7 9.6 0.00 0.00 0.00 44 1005.9
20260504204857 77 199 7.8 10.4 0.00 0.00 0.00 42 1005.6
20260504204355 77 187 5.2 8.7 0.00 0.00 0.00 42 1005.9
20260504203854 77 189 9.6 9.6 0.00 0.00 0.00 44 1005.8
20260504203350 77 173 5.2 7.0 0.00 0.00 0.00 45 1005.6
20260504202847 79 177 3.5 5.2 0.00 0.00 0.00 47 1005.7
20260504202344 78 178 4.3 5.2 0.00 0.00 0.00 47 1005.9
20260504201840 78 180 4.3 6.1 0.00 0.00 0.00 43 1005.9
20260504201337 77 187 4.3 5.2 0.00 0.00 0.00 45 1006.3
20260504200834 75 163 3.5 6.1 0.00 0.00 0.00 46 1006.2
20260504200331 75 180 2.6 3.5 0.00 0.00 0.00 55 1006.4
20260504195828 74 180 3.5 4.3 0.00 0.00 0.00 50 1006.3
20260504195323 75 180 3.5 4.3 0.00 0.00 0.00 48 1006.7
20260504194821 76 190 3.5 7.8 0.00 0.00 0.00 46 1006.6
20260504194316 75 153 5.2 9.6 0.00 0.00 0.00 46 1006.7
20260504193812 75 196 6.1 8.7 0.00 0.00 0.00 47 1006.8
20260504193310 74 181 5.2 5.2 0.00 0.00 0.00 50 1006.9
20260504192809 74 186 5.2 7.8 0.00 0.00 0.00 50 1007.0
20260504192306 74 190 4.3 7.0 0.00 0.00 0.00 51 1007.0
20260504191805 74 183 5.2 7.8 0.00 0.00 0.00 51 1006.7
20260504191301 75 189 5.2 5.2 0.00 0.00 0.00 50 1007.1
20260504190757 75 201 5.2 8.7 0.00 0.00 0.00 48 1007.0
20260504190253 75 154 5.2 5.2 0.00 0.00 0.00 50 1007.0
20260504185750 74 180 4.3 7.0 0.00 0.00 0.00 50 1007.4
20260504185247 75 181 4.3 5.2 0.00 0.00 0.00 53 1007.1
20260504184743 73 174 4.3 6.1 0.00 0.00 0.00 56 1007.5
20260504184239 72 171 5.2 6.1 0.00 0.00 0.00 54 1007.4
20260504183735 71 160 4.3 7.0 0.00 0.00 0.00 56 1007.4
20260504183232 71 189 4.3 6.1 0.00 0.00 0.00 55 1007.4
20260504182730 71 182 2.6 4.3 0.00 0.00 0.00 58 1007.6
20260504182227 71 184 3.5 6.1 0.00 0.00 0.00 55 1007.4
20260504181725 71 193 5.2 5.2 0.00 0.00 0.00 57 1007.3
20260504181222 71 161 4.3 5.2 0.00 0.00 0.00 58 1007.3
20260504180721 71 172 4.3 7.0 0.00 0.00 0.00 55 1007.4
20260504180219 71 156 4.3 6.1 0.00 0.00 0.00 58 1007.3
20260504175716 70 197 5.2 5.2 0.00 0.00 0.00 60 1007.3
20260504175213 69 184 4.3 7.8 0.00 0.00 0.00 56 1007.2
20260504174711 69 185 7.0 8.7 0.00 0.00 0.00 56 1007.5
20260504174209 69 194 4.3 7.0 0.00 0.00 0.00 58 1007.5
20260504173705 69 185 6.1 9.6 0.00 0.00 0.00 57 1007.1
20260504173202 69 200 8.7 10.4 0.00 0.00 0.00 60 1007.4
20260504172658 69 190 7.8 8.7 0.00 0.00 0.00 58 1007.5
20260504172155 69 180 5.2 6.1 0.00 0.00 0.00 62 1007.4
20260504171651 68 186 6.1 7.0 0.00 0.00 0.00 61 1007.4
20260504171149 67 186 5.2 6.1 0.00 0.00 0.00 61 1007.3
20260504170645 67 166 3.5 6.1 0.00 0.00 0.00 59 1007.6
20260504170143 68 174 6.1 7.8 0.00 0.00 0.00 59 1007.4
20260504151028 64 173 4.3 6.1 0.00 0.00 0.00 63 1007.9
20260504150525 63 170 4.3 6.1 0.00 0.00 0.00 64 1007.9
20260504140950 61 162 5.2 7.0 0.00 0.00 0.00 65 1007.7
20260504140447 61 149 6.1 6.1 0.00 0.00 0.00 65 1007.5
20260504130411 55 169 6.1 6.1 0.00 0.00 0.00 70 1008.2
20260504110259 53 181 6.1 7.8 0.00 0.00 0.00 66 1008.4